#timestamp,LO_Frequency,Hit,StdDev 
1590030015.8,286047001.3,N
1590030035.6,286047002.6,N
1590030055.5,286047001.3,N
1590030075.3,286047001.7,N
1590030095.1,286047002.5,N
1590030115.9,286047002.5,N
1590030135.7,286047004.2,Y
1590030155.6,286047000.6,P
1590030175.4,286047000.7,N
1590030195.2,286047003.6,P
1590030215.1,286046998.8,N
1590030216.0,286046998.8,N
1590030235.8,286047000.0,N
1590030255.6,286046998.4,N
1590030275.5,286046998.4,N
1590030295.3,286046999.5,N
1590030315.2,286046999.1,N
1590030335.9,286047001.2,N
1590030355.7,286047000.4,N
1590030375.6,286046998.3,N
1590030395.4,286046998.3,N
1590030415.3,286046998.6,N
1590030435.1,286047001.1,N
1590030436.0,286047001.1,N
1590030455.8,286047002.4,N
1590030475.7,286047000.5,N
1590030495.5,286047002.8,N
1590030515.3,286046999.8,N
1590030535.2,286047002.7,N
1590030555.0,286047003.8,N
1590030555.9,286047003.8,N
1590030575.8,286047004.7,N
1590030595.6,286047006.0,Y
1590030615.4,286047004.0,P
1590030635.3,286047000.2,N
1590030655.1,286047001.9,N
1590030675.9,286047001.3,N
1590030695.7,286047001.9,N
1590030715.5,286047002.7,N
1590030735.4,286047000.3,N
1590030755.2,286047001.0,N
1590030775.1,286047001.2,N
1590030776.0,286047001.2,N
1590030795.8,286046998.8,N
1590030815.6,286046997.0,N
1590030835.5,286046997.7,N
1590030855.3,286046997.2,N
1590030875.1,286046998.0,N
1590030895.9,286046997.8,N
1590030915.7,286046997.7,N
1590030935.6,286046995.1,N
1590030955.4,286046993.4,N
1590030975.2,286046993.7,N
1590030995.1,286046993.8,N
1590030996.0,286046993.8,N
1590031015.8,286046996.2,N
1590031035.7,286046995.5,N
1590031055.5,286046995.4,N
1590031075.3,286046995.4,N
1590031095.2,286046995.2,N
1590031115.0,286046995.4,N
1590031115.9,286046995.4,N
1590031135.7,286046994.9,N
1590031155.6,286046993.8,N
1590031175.4,286046994.1,N
1590031195.3,286046994.4,N
1590031215.1,286046991.8,N
1590031235.8,286046994.5,N
1590031255.7,286046993.3,N
1590031275.5,286046993.4,N
1590031295.4,286046992.0,Y
1590031315.2,286046996.6,P
1590031335.0,286046996.7,P
1590031335.9,286046996.7,P
1590031355.8,286046999.2,N
1590031375.6,286046999.0,N
1590031395.5,286046999.6,N
1590031415.3,286046995.7,Y
1590031435.1,286047001.0,P
1590031455.9,286047000.3,N
1590031475.7,286047000.8,N
1590031525.6,286047002.1,E
1590031535.5,286047003.1,N
1590031555.3,286046995.4,P
1590031575.2,286047000.9,N
1590031595.0,286047000.0,N
1590031595.9,286047000.0,N
1590031615.8,286046994.8,N
1590031635.6,286047003.7,N
1590031655.4,286047003.1,N
1590031675.3,286047002.5,N
1590031695.1,286047001.7,N
1590031715.8,286047000.1,N
1590031735.7,286047001.6,N
1590031755.5,286047002.5,N
1590031775.4,286047003.8,N
1590031795.2,286047001.9,N
1590031815.0,286047001.9,N
1590031815.9,286047001.9,N
1590031835.8,286047004.3,N
1590031855.6,286047001.8,N
1590031875.5,286047003.6,N
1590031895.3,286047004.3,N
1590031915.1,286047002.7,N
1590031935.9,286046999.2,N
1590031955.7,286047010.8,Y
1590031975.6,286047003.1,P
1590031995.4,286047002.3,N
1590032015.2,286047000.4,N
1590032035.1,286047000.4,N
1590032036.0,286047000.4,N
1590032055.8,286047000.2,N
1590032075.7,286046999.8,N
1590032095.5,286047001.8,N
1590032115.3,286047002.3,N
1590032135.2,286047006.0,Y
1590032155.0,286046999.9,P
1590032155.9,286046999.9,N
1590032175.8,286047000.4,N
1590032195.6,286047001.2,N
1590032215.4,286046998.8,N
1590032235.3,286046996.5,Y
1590032255.1,286046999.6,P
1590032275.8,286046997.9,P
1590032295.7,286047002.9,N
1590032315.5,286046998.3,N
1590032335.4,286046998.3,N
1590032355.2,286046996.9,N
1590032375.0,286046996.9,N
1590032375.9,286046996.9,N
1590032395.8,286046998.3,N
1590032415.6,286047000.2,N
1590032435.5,286047001.0,N
1590032455.3,286047001.1,N
1590032475.1,286046999.1,N
1590032495.9,286046999.4,N
1590032515.7,286046999.8,N
1590032535.5,286047001.6,N
1590032555.4,286047002.3,N
1590032575.2,286047000.6,N
1590032595.1,286047000.5,N
1590032596.0,286047000.5,N
1590032615.8,286047002.8,N
1590032635.6,286047000.2,N
1590032655.5,286047000.1,N
1590032675.3,286047002.5,N
1590032695.2,286046999.8,N
1590032715.9,286046999.0,N
1590032735.7,286046999.6,N
1590032755.6,286047000.8,N
1590032775.4,286046998.2,N
1590032795.2,286047000.4,N
1590032815.1,286047000.1,N
1590032816.0,286047000.1,N
1590032835.8,286047000.2,N
1590032855.7,286047000.4,N
1590032875.5,286047001.0,N
1590032895.3,286046998.4,N
1590032915.2,286047000.3,N
1590032935.0,286047000.1,N
1590032935.9,286047000.1,N
1590032955.8,286047001.3,N
1590032975.6,286047000.4,N
1590032995.4,286047001.2,N
1590033015.3,286046998.6,N
1590033035.1,286046999.3,N
1590033055.8,286046999.4,N
1590033075.7,286046999.4,N
1590033095.5,286047002.2,N
1590033115.4,286047000.7,N
1590033135.2,286046999.7,N
1590033155.0,286047001.2,N
1590033155.9,286047001.2,N
1590033175.8,286047000.5,N
1590033195.6,286047000.9,N
1590033215.5,286047002.6,N
1590033235.3,286047002.2,N
1590033255.1,286047001.6,N
1590033275.9,286047002.6,N
1590033295.7,286047005.9,Y
1590033315.5,286047007.6,P
1590033335.4,286047005.2,N
1590033355.2,286047005.3,N
1590033375.1,286047006.0,N
1590033376.0,286047006.0,N
1590033395.8,286047003.6,N
1590033415.6,286047004.0,N
1590033435.5,286047001.7,N
1590033455.3,286047003.8,N
1590033475.2,286047001.6,N
1590033495.9,286047001.3,N
1590033515.7,286047001.3,N
1590033535.6,286047002.2,N
1590033555.4,286047005.9,N
1590033575.2,286047002.5,N
1590033595.1,286046999.8,N
1590033596.0,286046999.8,N
